Hourly Weather Lugowo

Today, 17 June, Thursday

Time Temperature Precipitation Wind Pressure Humidity
00:00 +16°C° 0 mm 3 mps 755 mmHg 82%
01:00 +16°C° 0 mm 3 mps 755 mmHg 87%
02:00 +16°C° 0 mm 3 mps 755 mmHg 88%
03:00 +16°C° 0 mm 3 mps 755 mmHg 89%
04:00 +16°C° 0 mm 3 mps 754 mmHg 90%
05:00 +18°C° 0 mm 4 mps 755 mmHg 84%
06:00 +20°C° 0 mm 4 mps 755 mmHg 78%
07:00 +22°C° 0 mm 4 mps 755 mmHg 71%
08:00 +25°C° 0 mm 4 mps 755 mmHg 64%
09:00 +27°C° 0 mm 5 mps 755 mmHg 57%
10:00 +29°C° 0 mm 5 mps 755 mmHg 50%
11:00 +30°C° 0 mm 5 mps 755 mmHg 47%
12:00 +30°C° 0 mm 5 mps 755 mmHg 44%
13:00 +32°C° 0 mm 5 mps 755 mmHg 41%
14:00 +32°C° 0 mm 5 mps 754 mmHg 41%
15:00 +32°C° 0 mm 4 mps 754 mmHg 41%
16:00 +32°C° 0 mm 4 mps 754 mmHg 41%
17:00 +30°C° 0 mm 4 mps 754 mmHg 48%
18:00 +28°C° 0 mm 4 mps 754 mmHg 54%
19:00 +27°C° 0 mm 4 mps 754 mmHg 60%
20:00 +25°C° 0 mm 4 mps 754 mmHg 65%
21:00 +23°C° 0 mm 4 mps 754 mmHg 69%
22:00 +22°C° 0 mm 4 mps 755 mmHg 74%
23:00 +21°C° 0 mm 4 mps 755 mmHg 76%

Tomorrow, 18 June, Friday

Time Temperature Precipitation Wind Pressure Humidity
00:00 +20°C° 0 mm 4 mps 754 mmHg 79%
01:00 +19°C° 0 mm 4 mps 754 mmHg 81%
02:00 +19°C° 0 mm 3 mps 754 mmHg 82%
03:00 +18°C° 0 mm 3 mps 754 mmHg 83%
04:00 +18°C° 0 mm 3 mps 754 mmHg 84%
05:00 +19°C° 0 mm 4 mps 754 mmHg 76%
06:00 +21°C° 0 mm 4 mps 754 mmHg 69%
07:00 +23°C° 0 mm 4 mps 754 mmHg 62%
08:00 +26°C° 0 mm 4 mps 754 mmHg 57%
09:00 +27°C° 0 mm 4 mps 754 mmHg 51%
10:00 +29°C° 0 mm 4 mps 754 mmHg 45%
11:00 +30°C° 0 mm 4 mps 754 mmHg 43%
12:00 +32°C° 0 mm 4 mps 754 mmHg 40%
13:00 +33°C° 0 mm 4 mps 753 mmHg 38%
14:00 +33°C° 0 mm 4 mps 753 mmHg 38%
15:00 +33°C° 0 mm 4 mps 753 mmHg 39%
16:00 +33°C° 0 mm 4 mps 753 mmHg 40%
17:00 +32°C° 0 mm 5 mps 752 mmHg 45%
18:00 +29°C° 0 mm 5 mps 752 mmHg 50%
19:00 +28°C° 0 mm 5 mps 752 mmHg 55%
20:00 +27°C° 0 mm 4 mps 753 mmHg 60%
21:00 +25°C° 0 mm 4 mps 753 mmHg 65%
22:00 +24°C° 0 mm 3 mps 753 mmHg 70%
23:00 +22°C° 0 mm 3 mps 753 mmHg 74%

Day after tomorrow, 19 June, Saturday

Time Temperature Precipitation Wind Pressure Humidity
00:00 +21°C° 0 mm 3 mps 753 mmHg 77%
01:00 +21°C° 0 mm 3 mps 753 mmHg 81%
02:00 +20°C° 0 mm 3 mps 753 mmHg 82%
03:00 +20°C° 0 mm 3 mps 753 mmHg 84%
04:00 +19°C° 0 mm 3 mps 753 mmHg 86%
05:00 +21°C° 0 mm 3 mps 753 mmHg 80%
06:00 +24°C° 0 mm 3 mps 753 mmHg 74%
07:00 +25°C° 0 mm 3 mps 753 mmHg 68%
08:00 +27°C° 0 mm 3 mps 753 mmHg 61%
09:00 +29°C° 0 mm 3 mps 753 mmHg 54%
10:00 +31°C° 0 mm 3 mps 753 mmHg 47%
11:00 +33°C° 0 mm 3 mps 752 mmHg 43%
12:00 +34°C° 0 mm 3 mps 752 mmHg 39%
13:00 +35°C° 0 mm 2 mps 752 mmHg 35%
14:00 +35°C° 0 mm 2 mps 752 mmHg 35%
15:00 +35°C° 0 mm 2 mps 752 mmHg 35%
16:00 +35°C° 0 mm 2 mps 752 mmHg 35%
17:00 +32°C° 0.1 mm 2 mps 752 mmHg 44%
18:00 +30°C° 0.1 mm 3 mps 752 mmHg 54%
19:00 +28°C° 0.1 mm 3 mps 752 mmHg 64%
20:00 +26°C° 0.4 mm 3 mps 752 mmHg 71%
21:00 +23°C° 0.4 mm 4 mps 753 mmHg 77%
22:00 +21°C° 0.4 mm 4 mps 753 mmHg 84%
23:00 +20°C° 0.1 mm 4 mps 753 mmHg 85%

20 June, Sunday

Time Temperature Precipitation Wind Pressure Humidity
00:00 +19°C° 0.1 mm 4 mps 753 mmHg 86%
01:00 +19°C° 0.1 mm 3 mps 752 mmHg 87%
02:00 +19°C° 0.2 mm 3 mps 752 mmHg 88%
03:00 +19°C° 0.2 mm 3 mps 752 mmHg 90%
04:00 +19°C° 0.2 mm 2 mps 752 mmHg 91%
05:00 +20°C° 0.1 mm 3 mps 752 mmHg 85%
06:00 +22°C° 0.1 mm 3 mps 751 mmHg 79%
07:00 +25°C° 0.1 mm 3 mps 751 mmHg 73%
08:00 +27°C° 0 mm 4 mps 751 mmHg 65%
09:00 +29°C° 0 mm 4 mps 751 mmHg 57%
10:00 +30°C° 0 mm 5 mps 751 mmHg 49%
11:00 +32°C° 0 mm 5 mps 750 mmHg 45%
12:00 +33°C° 0 mm 5 mps 750 mmHg 42%
13:00 +33°C° 0 mm 5 mps 750 mmHg 38%
14:00 +33°C° 0 mm 5 mps 749 mmHg 39%
15:00 +33°C° 0 mm 5 mps 749 mmHg 39%
16:00 +33°C° 0 mm 5 mps 749 mmHg 40%
17:00 +32°C° 0 mm 5 mps 749 mmHg 46%
18:00 +30°C° 0 mm 5 mps 748 mmHg 51%
19:00 +28°C° 0 mm 5 mps 748 mmHg 57%
20:00 +27°C° 0 mm 4 mps 748 mmHg 62%
21:00 +25°C° 0 mm 4 mps 748 mmHg 68%
22:00 +23°C° 0 mm 4 mps 748 mmHg 73%
23:00 +22°C° 0 mm 4 mps 748 mmHg 75%

21 June, Monday

Time Temperature Precipitation Wind Pressure Humidity
00:00 +22°C° 0 mm 4 mps 748 mmHg 77%
01:00 +21°C° 0 mm 4 mps 748 mmHg 79%
02:00 +21°C° 0 mm 4 mps 747 mmHg 82%
03:00 +20°C° 0 mm 4 mps 747 mmHg 84%
04:00 +20°C° 0 mm 3 mps 747 mmHg 87%
05:00 +21°C° 0 mm 4 mps 747 mmHg 82%
06:00 +22°C° 0 mm 4 mps 747 mmHg 77%
07:00 +25°C° 0 mm 5 mps 747 mmHg 72%
08:00 +26°C° 0 mm 5 mps 747 mmHg 67%
09:00 +27°C° 0 mm 5 mps 747 mmHg 63%
10:00 +29°C° 0 mm 5 mps 747 mmHg 58%
11:00 +29°C° 0.1 mm 5 mps 747 mmHg 56%
12:00 +29°C° 0.1 mm 4 mps 747 mmHg 54%
13:00 +30°C° 0.1 mm 4 mps 747 mmHg 52%
14:00 +30°C° 0 mm 3 mps 747 mmHg 49%
15:00 +30°C° 0 mm 3 mps 747 mmHg 47%
16:00 +31°C° 0 mm 2 mps 747 mmHg 44%
17:00 +30°C° 0 mm 2 mps 747 mmHg 49%
18:00 +29°C° 0 mm 2 mps 747 mmHg 54%
19:00 +28°C° 0 mm 2 mps 747 mmHg 58%
20:00 +26°C° 0.2 mm 2 mps 747 mmHg 66%
21:00 +24°C° 0.2 mm 2 mps 747 mmHg 73%
22:00 +22°C° 0.2 mm 3 mps 746 mmHg 81%
23:00 +21°C° 0.2 mm 2 mps 746 mmHg 85%

22 June, Tuesday

Time Temperature Precipitation Wind Pressure Humidity
00:00 +21°C° 0.2 mm 2 mps 746 mmHg 89%
01:00 +20°C° 0.2 mm 2 mps 746 mmHg 93%
02:00 +20°C° 0.4 mm 2 mps 746 mmHg 93%
03:00 +20°C° 0.4 mm 2 mps 746 mmHg 94%
04:00 +20°C° 0.4 mm 2 mps 746 mmHg 94%
05:00 +20°C° 0.8 mm 2 mps 746 mmHg 93%
06:00 +21°C° 0.8 mm 2 mps 746 mmHg 91%
07:00 +21°C° 0.8 mm 2 mps 746 mmHg 89%
08:00 +21°C° 0.2 mm 3 mps 747 mmHg 88%
09:00 +21°C° 0.2 mm 3 mps 747 mmHg 88%
10:00 +22°C° 0.2 mm 4 mps 747 mmHg 87%
11:00 +23°C° 0.1 mm 5 mps 748 mmHg 79%
12:00 +24°C° 0.1 mm 6 mps 748 mmHg 71%
13:00 +26°C° 0.1 mm 7 mps 748 mmHg 63%
14:00 +24°C° 0.1 mm 6 mps 749 mmHg 65%
15:00 +24°C° 0.1 mm 6 mps 749 mmHg 68%
16:00 +23°C° 0.1 mm 6 mps 750 mmHg 70%
17:00 +22°C° 0 mm 5 mps 750 mmHg 71%
18:00 +21°C° 0 mm 5 mps 751 mmHg 73%
19:00 +20°C° 0 mm 5 mps 751 mmHg 74%
20:00 +20°C° 0 mm 4 mps 751 mmHg 74%
21:00 +19°C° 0 mm 3 mps 752 mmHg 74%
22:00 +19°C° 0 mm 2 mps 752 mmHg 75%
23:00 +17°C° 0 mm 2 mps 752 mmHg 81%
Show more

We Need Your Consent

Meteoprog and our Service Providers may store and access personal data such as cookies, device identifiers or other similar technologies on your device and process such data to personalise content and ads, as well as provide social media features and to analyse the traffic.

  • Store and/or access information on your device

    Cookies, device identifiers or other information can be stored or accessed on your device for the purposes indicated above.

  • Personalised ads and content, ad and content measurement, audience insights, and products development

    Ads and content can be personalised based on a profile. More data can be added to better personalise ads and content. Ad and content performance can be measured. Insights about the audience who saw the ads and content can be derived. Such data can be used to develop or improve user’s experience, systems and software.

By clicking ‘I Agree’ you will allow the use of indicated cookies, device identifiers, web beacons or other similar technologies. Your settings can be changed in the browser on your device.

For certain purposes, legitimate interests may be relied on, rather than consent. You can read more about this in our Privacy and Cookie Policy.